星链-4058 (STARLINK-4058 )

导读 | 豆包AI

STARLINK-4058是美国太空探索技术公司SpaceX星链卫星互联网项目中的一颗卫星,于2022年7月24日发射入轨,属于星链星座组网任务的一部分。星链系统旨在为全球提供高速低延迟互联网覆盖,该卫星跟随星座部署计划,在近地轨道运行,服务于全球卫星互联网的组网与服务提供。

Basic Information
目录编号:
53266
目录名称:
STARLINK-4058
国际标识:
2022-086AA
轨道中心:
EARTH
卫星名称:
星链-4058
卫星全名:
星链-4058 (STARLINK-4058 )
卫星状态:
在轨 (已飞行1330 天)
发射日期:
2022-07-24 UTC
国别 :
美国 (US)
星等 :
--
Orbit Information
数据来源 国际轨道数据 AOE轨道数据
星历时间 2026-03-15T00:42:17+0800
12小时前
查看轨道信息
2026-03-13T09:00:00+0800
2天前
查看轨道信息
半长轴 6917.853km 6917.957km
偏心率 0.0001221 0.0001265
轨道倾角 53.218° 53.213°
近地点辐角 78.513° 60.154°
升交点赤经 171.647° 179.074°
平近点角 281.600° 308.837°
近地点 538.871km 538.944km
远地点 540.561km 540.696km
周期 95.437分钟 95.439分钟
每日圈数 15.088492 15.08815
Detailed Information
固有亮度:
5
最大亮度:
2.5
卫星平台:
Starlink v1.5
覆盖范围:
全球
运营商:
太空探索技术公司
运营商所在国:
美国
制造商(研发单位):
太空探索技术公司
制造商所在国:
美国
使用方式:
暂无
Satellite Introduction
星链(Starlink)计划是由太空探索技术公司(SpaceX)提出的一个巨型低轨卫星互联网星座项目,计划在2019年至2024年间在太空搭建由约1.2万颗卫星组成的“星链”网络,其中1584颗将部署在地球上空550千米处的近地轨道,并从2020年开始工作。该卫星仍在工作。
2D Orbit Map
3D Orbit Map
Orbit Altitude Analysis Chart
Orbit Inclination Analysis Chart
Orbit Comprehensive Analysis Chart
View Comprehensive Chart